TimeCST,TemperatureF,Dew PointF,Humidity,Sea Level PressureIn,VisibilityMPH,Wind Direction,Wind SpeedMPH,Gust SpeedMPH,PrecipitationIn,Events,Conditions,WindDirDegrees,DateUTC
12:15 AM,1.4,-5.8,72,30.36,10.0,NNE,5.8,-,N/A,,Clear,30,2013-02-20 06:15:00
12:35 AM,1.4,-5.8,72,30.37,10.0,NNE,4.6,-,N/A,,Clear,30,2013-02-20 06:35:00
12:55 AM,1.4,-5.8,72,30.36,10.0,NE,3.5,-,N/A,,Clear,40,2013-02-20 06:55:00
1:15 AM,1.4,-5.8,72,30.35,10.0,ENE,8.1,-,N/A,,Clear,60,2013-02-20 07:15:00
1:35 AM,-0.4,-7.6,72,30.35,10.0,NE,5.8,-,N/A,,Clear,50,2013-02-20 07:35:00
1:55 AM,-0.4,-7.6,72,30.36,10.0,NE,3.5,-,N/A,,Clear,40,2013-02-20 07:55:00
2:15 AM,-0.4,-7.6,72,30.36,10.0,NE,3.5,-,N/A,,Clear,40,2013-02-20 08:15:00
2:35 AM,-0.4,-7.6,72,30.36,10.0,Calm,Calm,-,N/A,,Clear,0,2013-02-20 08:35:00
3:15 AM,-0.4,-7.6,72,30.33,10.0,ENE,6.9,-,N/A,,Clear,60,2013-02-20 09:15:00
3:35 AM,-0.4,-7.6,72,30.35,10.0,Calm,Calm,-,N/A,,Clear,0,2013-02-20 09:35:00
3:55 AM,-2.2,-9.4,71,30.36,10.0,Calm,Calm,-,N/A,,Clear,0,2013-02-20 09:55:00
4:15 AM,-2.2,-9.4,71,30.36,10.0,Calm,Calm,-,N/A,,Clear,0,2013-02-20 10:15:00
4:35 AM,-2.2,-9.4,71,30.35,10.0,Calm,Calm,-,N/A,,Clear,0,2013-02-20 10:35:00
4:55 AM,-2.2,-9.4,71,30.35,10.0,Calm,Calm,-,N/A,,Clear,0,2013-02-20 10:55:00
5:15 AM,-2.2,-7.6,78,30.34,10.0,NE,4.6,-,N/A,,Clear,40,2013-02-20 11:15:00
5:35 AM,-2.2,-9.4,71,30.34,10.0,ENE,4.6,-,N/A,,Clear,60,2013-02-20 11:35:00
6:15 AM,-2.2,-9.4,71,30.34,10.0,Calm,Calm,-,N/A,,Clear,0,2013-02-20 12:15:00
6:35 AM,-2.2,-7.6,78,30.34,10.0,Calm,Calm,-,N/A,,Clear,0,2013-02-20 12:35:00
6:55 AM,-2.2,-7.6,78,30.33,10.0,East,5.8,-,N/A,,Clear,80,2013-02-20 12:55:00
7:15 AM,-2.2,-7.6,78,30.32,10.0,ENE,5.8,-,N/A,,Clear,70,2013-02-20 13:15:00
7:35 AM,-2.2,-9.4,71,30.33,10.0,East,9.2,-,N/A,,Clear,80,2013-02-20 13:35:00
7:55 AM,-0.4,-7.6,72,30.33,10.0,East,6.9,-,N/A,,Clear,80,2013-02-20 13:55:00
8:15 AM,-0.4,-7.6,72,30.34,10.0,East,5.8,-,N/A,,Clear,80,2013-02-20 14:15:00
8:35 AM,1.4,-5.8,72,30.35,10.0,East,4.6,-,N/A,,Clear,100,2013-02-20 14:35:00
9:15 AM,5.0,-5.8,61,30.36,10.0,ESE,6.9,-,N/A,,Clear,110,2013-02-20 15:15:00
9:35 AM,6.8,-4.0,61,30.36,10.0,ESE,6.9,-,N/A,,Clear,120,2013-02-20 15:35:00
9:55 AM,8.6,-2.2,62,30.36,10.0,ESE,5.8,-,N/A,,Clear,110,2013-02-20 15:55:00
10:15 AM,8.6,-2.2,62,30.34,10.0,ESE,6.9,-,N/A,,Clear,110,2013-02-20 16:15:00
10:35 AM,10.4,-2.2,57,30.34,10.0,ESE,9.2,-,N/A,,Clear,110,2013-02-20 16:35:00
10:55 AM,10.4,-2.2,57,30.33,10.0,East,8.1,-,N/A,,Clear,100,2013-02-20 16:55:00
11:15 AM,12.2,-2.2,53,30.34,10.0,ESE,8.1,-,N/A,,Clear,110,2013-02-20 17:15:00
11:35 AM,14.0,-2.2,49,30.35,10.0,SE,6.9,-,N/A,,Mostly Cloudy,130,2013-02-20 17:35:00
11:55 AM,15.8,-2.2,45,30.36,10.0,SE,8.1,-,N/A,,Overcast,130,2013-02-20 17:55:00
12:15 PM,15.8,-2.2,45,30.36,10.0,SE,8.1,-,N/A,,Overcast,140,2013-02-20 18:15:00
12:35 PM,17.6,-0.4,45,30.35,10.0,SE,6.9,-,N/A,,Overcast,130,2013-02-20 18:35:00
12:55 PM,17.6,-0.4,45,30.33,10.0,SE,5.8,-,N/A,,Overcast,130,2013-02-20 18:55:00
1:15 PM,19.4,-2.2,39,30.31,10.0,ESE,8.1,-,N/A,,Overcast,110,2013-02-20 19:15:00
1:35 PM,19.4,-0.4,42,30.30,10.0,ESE,6.9,-,N/A,,Mostly Cloudy,110,2013-02-20 19:35:00
1:55 PM,21.2,-0.4,39,30.29,10.0,SE,4.6,-,N/A,,Scattered Clouds,130,2013-02-20 19:55:00
2:15 PM,24.8,-0.4,34,30.28,10.0,ESE,6.9,-,N/A,,Clear,110,2013-02-20 20:15:00
2:35 PM,24.8,-2.2,31,30.28,10.0,ESE,5.8,-,N/A,,Clear,120,2013-02-20 20:35:00
2:55 PM,24.8,-2.2,31,30.27,10.0,SE,5.8,-,N/A,,Clear,130,2013-02-20 20:55:00
3:15 PM,24.8,-2.2,31,30.27,10.0,SE,6.9,-,N/A,,Clear,140,2013-02-20 21:15:00
3:35 PM,24.8,-0.4,34,30.27,10.0,ESE,8.1,-,N/A,,Clear,110,2013-02-20 21:35:00
3:55 PM,24.8,-2.2,31,30.26,10.0,ESE,8.1,-,N/A,,Clear,110,2013-02-20 21:55:00
4:15 PM,24.8,-0.4,34,30.26,10.0,ESE,8.1,-,N/A,,Clear,120,2013-02-20 22:15:00
4:35 PM,24.8,-2.2,31,30.25,10.0,SE,6.9,-,N/A,,Clear,140,2013-02-20 22:35:00
4:55 PM,24.8,-0.4,34,30.24,10.0,ESE,11.5,-,N/A,,Clear,120,2013-02-20 22:55:00
5:15 PM,24.8,-0.4,34,30.24,10.0,ESE,8.1,-,N/A,,Clear,110,2013-02-20 23:15:00
5:35 PM,23.0,-0.4,36,30.23,10.0,ESE,8.1,-,N/A,,Mostly Cloudy,110,2013-02-20 23:35:00
5:55 PM,21.2,1.4,42,30.22,10.0,East,11.5,17.3,N/A,,Overcast,100,2013-02-20 23:55:00
6:15 PM,21.2,1.4,42,30.23,10.0,East,9.2,-,N/A,,Overcast,100,2013-02-21 00:15:00
6:35 PM,21.2,1.4,42,30.23,10.0,East,10.4,-,N/A,,Overcast,100,2013-02-21 00:35:00
6:55 PM,21.2,1.4,42,30.22,10.0,East,11.5,-,N/A,,Overcast,100,2013-02-21 00:55:00
7:15 PM,19.4,1.4,46,30.23,10.0,East,11.5,16.1,N/A,,Overcast,100,2013-02-21 01:15:00
7:35 PM,19.4,1.4,46,30.23,10.0,East,10.4,17.3,N/A,,Overcast,90,2013-02-21 01:35:00
7:55 PM,19.4,3.2,49,30.24,10.0,East,11.5,18.4,N/A,,Overcast,100,2013-02-21 01:55:00
8:15 PM,19.4,3.2,49,30.24,10.0,East,12.7,17.3,N/A,,Overcast,100,2013-02-21 02:15:00
8:35 PM,19.4,3.2,49,30.24,10.0,East,9.2,-,N/A,,Overcast,100,2013-02-21 02:35:00
9:15 PM,17.6,5.0,58,30.24,10.0,East,9.2,-,N/A,,Scattered Clouds,100,2013-02-21 03:15:00
9:35 PM,17.6,5.0,58,30.23,10.0,East,11.5,-,N/A,,Overcast,100,2013-02-21 03:35:00
9:55 PM,17.6,5.0,58,30.24,10.0,East,9.2,-,N/A,,Mostly Cloudy,90,2013-02-21 03:55:00
10:15 PM,15.8,6.8,68,30.24,10.0,East,10.4,-,N/A,,Scattered Clouds,90,2013-02-21 04:15:00
10:35 PM,15.8,6.8,68,30.24,10.0,East,10.4,-,N/A,,Mostly Cloudy,90,2013-02-21 04:35:00
10:55 PM,15.8,6.8,68,30.24,10.0,East,9.2,-,N/A,,Mostly Cloudy,90,2013-02-21 04:55:00
11:15 PM,15.8,6.8,68,30.24,10.0,East,8.1,-,N/A,,Scattered Clouds,100,2013-02-21 05:15:00
11:35 PM,15.8,6.8,68,30.25,10.0,East,6.9,-,N/A,,Scattered Clouds,100,2013-02-21 05:35:00
11:55 PM,15.8,8.6,73,30.26,10.0,East,6.9,-,N/A,,Mostly Cloudy,100,2013-02-21 05:55:00